This is the latest recevied weather packets stored in our database for station/object KF0JHJ. If no packets are shown the sender has not sent any weather packets the latest 10 day(s).
| Time | Temp. | Humidity | Pressure | Rain* | Wind** | Luminosity | Snow |
|---|---|---|---|---|---|---|---|
| 1777844633 | 22.78° C | 31% | 1003.5 hPa | - | - | 488 W/m² | - |
| 1777844330 | 22.22° C | 28% | 1003.4 hPa | - | - | 492 W/m² | - |
| 1777844028 | 22.22° C | 27% | 1003.6 hPa | - | - | 502 W/m² | - |
| 1777843724 | 22.22° C | 26% | 1003.7 hPa | - | - | 530 W/m² | - |
| 1777843422 | 22.22° C | 27% | 1003.7 hPa | - | - | 508 W/m² | - |
| 1777843119 | 22.22° C | 29% | 1003.7 hPa | - | - | 548 W/m² | - |
| 1777842816 | 22.22° C | 27% | 1003.7 hPa | - | - | 524 W/m² | - |
| 1777842511 | 22.78° C | 29% | 1003.6 hPa | - | - | 565 W/m² | - |
| 1777842209 | 23.33° C | 34% | 1004 hPa | - | - | 560 W/m² | - |
| 1777841904 | 22.78° C | 29% | 1003.9 hPa | - | - | 573 W/m² | - |
| 1777841600 | 22.78° C | 31% | 1003.9 hPa | - | - | 563 W/m² | - |
| 1777841297 | 22.22° C | 30% | 1003.8 hPa | - | - | 586 W/m² | - |
| 1777840994 | 22.22° C | 30% | 1004.1 hPa | - | - | 610 W/m² | - |
| 1777840691 | 22.22° C | 29% | 1004.1 hPa | - | - | 609 W/m² | - |
| 1777840389 | 22.22° C | 29% | 1003.9 hPa | - | - | 612 W/m² | - |
| 1777840086 | 22.22° C | 31% | 1004.2 hPa | - | - | 625 W/m² | - |
| 1777839784 | 21.67° C | 32% | 1004.3 hPa | - | - | 598 W/m² | - |
| 1777839481 | 21.67° C | 31% | 1004.2 hPa | - | - | 590 W/m² | - |
| 1777839178 | 21.67° C | 30% | 1004.4 hPa | - | - | 651 W/m² | - |
| 1777838876 | 21.67° C | 32% | 1004.4 hPa | - | - | 646 W/m² | - |
| 1777838571 | 21.67° C | 32% | 1004.4 hPa | - | - | 612 W/m² | - |
| 1777838269 | 21.67° C | 33% | 1004.6 hPa | - | - | 653 W/m² | - |
| 1777837965 | 21.11° C | 32% | 1004.7 hPa | - | - | 650 W/m² | - |
| 1777837663 | 21.67° C | 33% | 1004.7 hPa | - | - | 651 W/m² | - |
| 1777837358 | 21.67° C | 35% | 1004.9 hPa | - | - | 651 W/m² | - |
* Rain since midnight (hover to see other rain measurements)
** Current wind speed in m/s (hover to see current wind gust speed)